Allure of the Seas — C6XS8 — position and weather

sailwx.info

Track history (hours):
 
Tides and Currents Weather Stations Pressure Air Temp Water Temp Dewpoint Dewpoint Depression Visibility Wind Speed Wind Dir Waves Ship Positions

Allure of the Seas

Last reported at 2017-Apr-27 22:15 UTC. Time now 2017-Apr-29 03:24 UTC.
Position N 18°07' W 063°20'.

Length 362 m; draft 9.3 m.

Type: Passenger vessel. MMSI: 311020700.

Date/timePositionNaut miles runAvg speedWind from/ knotsBaromVisibWave heightAir tempDewpointWater temp
2017-Apr-27 22:15N 18°07' W 063°20'518.7
2017-Apr-27 21:58N 18°04' W 063°16'918.3
2017-Apr-27 21:29N 18°00' W 063°07'4 0.4
2017-Apr-27 11:36N 18°01' W 063°03'0 1.1
2017-Apr-27 11:24N 18°00' W 063°03'3 6.9
2017-Apr-27 10:59N 18°00' W 063°06'510.2
2017-Apr-27 10:29N 18°01' W 063°12'510.3
2017-Apr-27 10:00N 18°01' W 063°17'610.2
2017-Apr-27 09:27N 18°02' W 063°23'510.1
2017-Apr-27 09:00N 18°02' W 063°27'510.0
2017-Apr-27 08:30N 18°02' W 063°33'610.2
2017-Apr-27 07:58N 18°03' W 063°38'91 4.6
2017-Apr-26 12:00N 18°24' W 065°12'48820.3 100 / 161015.0 27.021.028.0
2017-Apr-25 12:00N 23°06' W 072°18'46112.0 150 / 61013.010.8 25.0 27.0
2017-Apr-23 21:33N 26°05' W 080°05'010.6
2017-Apr-23 21:30N 26°06' W 080°05'2 2.4
2017-Apr-23 20:43N 26°05' W 080°07'0 0.0
2017-Apr-23 19:16N 26°05' W 080°07'0 0.0
2017-Apr-23 18:19N 26°05' W 080°07'0 0.0
2017-Apr-23 17:19N 26°05' W 080°07'0 0.0
2017-Apr-23 16:49N 26°05' W 080°07'0 0.0
2017-Apr-23 16:22N 26°05' W 080°07'0 0.0
2017-Apr-23 15:55N 26°05' W 080°07'0 0.0
2017-Apr-23 15:19N 26°05' W 080°07'0 0.0
2017-Apr-23 14:49N 26°05' W 080°07'0 0.0
2017-Apr-23 14:19N 26°05' W 080°07'0 0.0
2017-Apr-23 12:01N 26°05' W 080°07'0 0.0
2017-Apr-23 11:55N 26°05' W 080°07'0 0.0
2017-Apr-23 11:10N 26°05' W 080°07'0 0.0
2017-Apr-23 10:49N 26°05' W 080°07'0 0.0
2017-Apr-23 10:19N 26°05' W 080°07'0 0.1
2017-Apr-23 10:00N 26°05' W 080°07'3 5.4
2017-Apr-23 09:30N 26°06' W 080°04'5 9.2
2017-Apr-23 09:00N 26°03' W 079°60'611.3
2017-Apr-23 08:30N 25°57' W 079°59'5 9.9
2017-Apr-23 08:00N 25°53' W 079°59'816.4
2017-Apr-23 07:30N 25°44' W 079°58'1020.5
2017-Apr-23 07:00N 25°34' W 079°57'1020.2
2017-Apr-23 06:30N 25°24' W 079°56'18114.4
2017-Apr-22 18:00N 23°30' W 082°30'9515.9 080 / 151011.1 27.8 29.2
2017-Apr-22 12:00N 22°54' W 084°06'21317.0 130 / 181011.0 26.0 29.0
2017-Apr-21 23:29N 20°35' W 086°59'511.0
2017-Apr-21 23:00N 20°29' W 086°59'0 0.7
2017-Apr-21 22:30N 20°29' W 086°59'0 0.0
2017-Apr-21 22:00N 20°29' W 086°59'0 0.0
2017-Apr-21 21:30N 20°29' W 086°59'0 0.0
2017-Apr-21 21:00N 20°29' W 086°59'0 0.0
2017-Apr-21 20:30N 20°29' W 086°59'0 0.0
2017-Apr-21 19:57N 20°29' W 086°59'0 0.0
2017-Apr-21 19:30N 20°29' W 086°59'0 0.0
2017-Apr-21 19:00N 20°29' W 086°59'0 0.0
2017-Apr-21 18:30N 20°29' W 086°59'0 0.0
2017-Apr-21 18:00N 20°29' W 086°59'0 0.0
2017-Apr-21 17:30N 20°29' W 086°59'0 0.0
2017-Apr-21 17:00N 20°29' W 086°59'0 0.0
2017-Apr-21 16:30N 20°29' W 086°59'0 0.0
2017-Apr-21 16:00N 20°29' W 086°59'0 0.0
2017-Apr-21 15:30N 20°29' W 086°59'0 0.0
2017-Apr-21 14:57N 20°29' W 086°59'0 0.0
2017-Apr-21 14:27N 20°29' W 086°59'0 0.0
2017-Apr-21 13:30N 20°29' W 086°59'0 0.0
2017-Apr-21 12:57N 20°29' W 086°59'0 0.0
2017-Apr-21 12:30N 20°29' W 086°59'0 0.0
2017-Apr-21 11:57N 20°29' W 086°59'1 1.6
2017-Apr-21 11:31N 20°30' W 086°59'4 8.0
2017-Apr-21 11:00N 20°34' W 086°58'510.4
2017-Apr-21 10:30N 20°38' W 086°55'32214.3
2017-Apr-20 12:00N 19°36' W 081°18'   100 / 141016.0 25.023.529.0
Track history (hours):
 
Tides and Currents Weather Stations Pressure Air Temp Water Temp Dewpoint Dewpoint Depression Visibility Wind Speed Wind Dir Waves Ship Positions

Allure of the Seas

Last reported at 2017-Apr-27 22:15 UTC. Time now 2017-Apr-29 03:24 UTC.
Position N 18°07' W 063°20'.

Length 362 m; draft 9.3 m.

Type: Passenger vessel. MMSI: 311020700.

Date/timePositionNaut miles runAvg speedWind from/ knotsBaromVisibWave heightAir tempDewpointWater temp
2017-Apr-27 22:15N 18°07' W 063°20'518.7
2017-Apr-27 21:58N 18°04' W 063°16'918.3
2017-Apr-27 21:29N 18°00' W 063°07'4 0.4
2017-Apr-27 11:36N 18°01' W 063°03'0 1.1
2017-Apr-27 11:24N 18°00' W 063°03'3 6.9
2017-Apr-27 10:59N 18°00' W 063°06'510.2
2017-Apr-27 10:29N 18°01' W 063°12'510.3
2017-Apr-27 10:00N 18°01' W 063°17'610.2
2017-Apr-27 09:27N 18°02' W 063°23'510.1
2017-Apr-27 09:00N 18°02' W 063°27'510.0
2017-Apr-27 08:30N 18°02' W 063°33'610.2
2017-Apr-27 07:58N 18°03' W 063°38'91 4.6
2017-Apr-26 12:00N 18°24' W 065°12'48820.3 100 / 161015.0 27.021.028.0
2017-Apr-25 12:00N 23°06' W 072°18'46112.0 150 / 61013.010.8 25.0 27.0
2017-Apr-23 21:33N 26°05' W 080°05'010.6
2017-Apr-23 21:30N 26°06' W 080°05'2 2.4
2017-Apr-23 20:43N 26°05' W 080°07'0 0.0
2017-Apr-23 19:16N 26°05' W 080°07'0 0.0
2017-Apr-23 18:19N 26°05' W 080°07'0 0.0
2017-Apr-23 17:19N 26°05' W 080°07'0 0.0
2017-Apr-23 16:49N 26°05' W 080°07'0 0.0
2017-Apr-23 16:22N 26°05' W 080°07'0 0.0
2017-Apr-23 15:55N 26°05' W 080°07'0 0.0
2017-Apr-23 15:19N 26°05' W 080°07'0 0.0
2017-Apr-23 14:49N 26°05' W 080°07'0 0.0
2017-Apr-23 14:19N 26°05' W 080°07'0 0.0
2017-Apr-23 12:01N 26°05' W 080°07'0 0.0
2017-Apr-23 11:55N 26°05' W 080°07'0 0.0
2017-Apr-23 11:10N 26°05' W 080°07'0 0.0
2017-Apr-23 10:49N 26°05' W 080°07'0 0.0
2017-Apr-23 10:19N 26°05' W 080°07'0 0.1
2017-Apr-23 10:00N 26°05' W 080°07'3 5.4
2017-Apr-23 09:30N 26°06' W 080°04'5 9.2
2017-Apr-23 09:00N 26°03' W 079°60'611.3
2017-Apr-23 08:30N 25°57' W 079°59'5 9.9
2017-Apr-23 08:00N 25°53' W 079°59'816.4
2017-Apr-23 07:30N 25°44' W 079°58'1020.5
2017-Apr-23 07:00N 25°34' W 079°57'1020.2
2017-Apr-23 06:30N 25°24' W 079°56'18114.4
2017-Apr-22 18:00N 23°30' W 082°30'9515.9 080 / 151011.1 27.8 29.2
2017-Apr-22 12:00N 22°54' W 084°06'21317.0 130 / 181011.0 26.0 29.0
2017-Apr-21 23:29N 20°35' W 086°59'511.0
2017-Apr-21 23:00N 20°29' W 086°59'0 0.7
2017-Apr-21 22:30N 20°29' W 086°59'0 0.0
2017-Apr-21 22:00N 20°29' W 086°59'0 0.0
2017-Apr-21 21:30N 20°29' W 086°59'0 0.0
2017-Apr-21 21:00N 20°29' W 086°59'0 0.0
2017-Apr-21 20:30N 20°29' W 086°59'0 0.0
2017-Apr-21 19:57N 20°29' W 086°59'0 0.0
2017-Apr-21 19:30N 20°29' W 086°59'0 0.0
2017-Apr-21 19:00N 20°29' W 086°59'0 0.0
2017-Apr-21 18:30N 20°29' W 086°59'0 0.0
2017-Apr-21 18:00N 20°29' W 086°59'0 0.0
2017-Apr-21 17:30N 20°29' W 086°59'0 0.0
2017-Apr-21 17:00N 20°29' W 086°59'0 0.0
2017-Apr-21 16:30N 20°29' W 086°59'0 0.0
2017-Apr-21 16:00N 20°29' W 086°59'0 0.0
2017-Apr-21 15:30N 20°29' W 086°59'0 0.0
2017-Apr-21 14:57N 20°29' W 086°59'0 0.0
2017-Apr-21 14:27N 20°29' W 086°59'0 0.0
2017-Apr-21 13:30N 20°29' W 086°59'0 0.0
2017-Apr-21 12:57N 20°29' W 086°59'0 0.0
2017-Apr-21 12:30N 20°29' W 086°59'0 0.0
2017-Apr-21 11:57N 20°29' W 086°59'1 1.6
2017-Apr-21 11:31N 20°30' W 086°59'4 8.0
2017-Apr-21 11:00N 20°34' W 086°58'510.4
2017-Apr-21 10:30N 20°38' W 086°55'32214.3
2017-Apr-20 12:00N 19°36' W 081°18'   100 / 141016.0 25.023.529.0

Dump ship's entire track history